Home > Weather > Fürth > Past weeks

Flag for Germany Weather for the Past 2 Weeks in Fürth, Bavaria, Germany

Now
37 °F

Passing clouds.


Feels Like: 33 °F
Forecast: 35 / 52 °F
Wind: 6 mph from Southeast

Location: Nuernberg

Current Time: Feb 6, 2016 at 12:23:14 AM

Latest Report: Feb 5, 2016 at 11:50 PM


Visibility: N/A

Pressure: 30.21 "Hg

Humidity: 93%

Dew point: 36 °F

Location of FürthLocation

Historic Weather in Fürth — Graph

°F

Fürth Temperature Yesterday

Maximum temperature yesterday: 45 °F (at 2:50 PM)
Minimum temperature yesterday: 36 °F (at 12:50 AM)
Average temperature yesterday: 40 °F

High & Low Weather Summary for the Past Weeks

 TemperatureHumidityPressure
High57 °F (Jan 27, 2:20 PM)100% (Jan 21, 11:50 PM)30.60 "Hg (Jan 21, 11:50 PM)
Low10 °F (Jan 22, 3:20 AM)51% (Jan 27, 2:20 PM)29.83 "Hg (Jan 30, 5:20 PM)
Average40 °F84%30.23 "Hg
* Reported Jan 21 10:20 PM — Feb 5 10:50 PM, Fürth, Weather by CustomWeather, © 2016

Note: Actual official high and low records may vary slightly from our data, if they occured in-between our weather recording intervals... More about our weather records

Advertising

Fürth Weather History for the Previous 24 Hours

 ConditionsComfort  
Time TempWeatherWind HumidityBarometerVisibility
10:50 PM
Fri, Feb 5
39 °FPassing clouds.5 mph87%30.24 "HgN/A
10:20 PM41 °FPassing clouds.6 mph87%30.24 "HgN/A
9:50 PM43 °FPassing clouds.3 mph81%30.24 "HgN/A
9:20 PM45 °FPassing clouds.5 mph81%30.24 "HgN/A
8:50 PM45 °FPassing clouds.5 mph81%30.27 "HgN/A
8:20 PM45 °FPassing clouds.3 mph81%30.27 "HgN/A
7:50 PM45 °FPassing clouds.3 mph81%30.27 "HgN/A
7:20 PM45 °FPassing clouds.3 mph81%30.27 "HgN/A
6:50 PM45 °FPassing clouds.5 mph81%30.27 "HgN/A
6:20 PM45 °FPassing clouds.5 mph81%30.27 "HgN/A
5:50 PM45 °FPassing clouds.3 mph81%30.27 "HgN/A
5:20 PM45 °FPassing clouds.6 mph81%30.27 "HgN/A
4:50 PM45 °FPartly sunny.6 mph81%30.27 "HgN/A
4:20 PM45 °FPartly sunny.7 mph81%30.27 "HgN/A
3:50 PM45 °FPartly sunny.6 mph81%30.27 "HgN/A
3:20 PM45 °FPartly sunny.5 mph76%30.27 "HgN/A
2:50 PM45 °FPartly sunny.6 mph76%30.27 "HgN/A
2:20 PM43 °FBroken clouds.6 mph81%30.27 "HgN/A
1:50 PM43 °FBroken clouds.7 mph81%30.30 "HgN/A
1:20 PM41 °FDrizzle. Partly sunny.6 mph87%30.33 "HgN/A
12:50 PM41 °FDrizzle. Partly sunny.7 mph81%30.33 "HgN/A
12:20 PM41 °FPartly sunny.5 mph81%30.33 "HgN/A
11:50 AM39 °FDrizzle. Partly sunny.6 mph87%30.36 "HgN/A
11:20 AM39 °FPartly sunny.8 mph81%30.36 "HgN/A
10:50 AM37 °FDrizzle. Partly sunny.3 mph87%30.36 "HgN/A
10:20 AM37 °FChilly.6 mph81%30.36 "HgN/A
9:50 AM37 °FPartly sunny.5 mph81%30.36 "HgN/A
9:20 AM36 °FPartly sunny.6 mph87%30.36 "HgN/A
8:50 AM36 °FPartly sunny.3 mph87%30.36 "HgN/A
8:20 AM36 °FPartly sunny.1 mph87%30.36 "HgN/A
7:50 AM36 °FPartly sunny.3 mph87%30.36 "HgN/A
7:20 AM36 °FPassing clouds.3 mph87%30.33 "HgN/A
6:50 AM36 °FFog.2 mph87%30.33 "HgN/A
6:20 AM36 °FFog.1 mph87%30.33 "HgN/A
5:50 AM36 °FFog.2 mph87%30.33 "HgN/A
5:20 AM36 °FPassing clouds.1 mph87%30.33 "HgN/A
4:20 AM36 °FPassing clouds.3 mph93%30.30 "HgN/A
3:50 AM36 °FPassing clouds.3 mph93%30.30 "HgN/A
3:20 AM36 °FPassing clouds.3 mph93%30.30 "HgN/A
2:50 AM36 °FPassing clouds.2 mph93%30.27 "HgN/A
2:20 AM36 °FPassing clouds.2 mph87%30.27 "HgN/A
1:50 AM36 °FPassing clouds.2 mph93%30.27 "HgN/A
1:20 AM36 °FPassing clouds.3 mph87%30.24 "HgN/A
12:50 AM36 °FPassing clouds.6 mph87%30.24 "HgN/A
12:20 AM37 °FPassing clouds.6 mph87%30.24 "HgN/A
Weather by CustomWeather, © 2016

See weather overviewHow to use our weather pages